Flag for Canada Weather past 2 weeks in Halifax, Nova Scotia, Canada

Now
75 °F

Broken clouds.


Feels Like: 78 °F
Forecast: 63 / 76 °F
Wind: 14 mph from West

Location: Halifax International Airport

Current Time: Aug 30, 2015 at 5:11:54 PM

Latest Report: Aug 30, 2015 at 4:00 PM


Visibility: 15 mi

Pressure: 29.98 "Hg

Humidity: 57%

Dew point: 59 °F

Location of HalifaxLocation

Historic Weather in Halifax — Graph

°F

Halifax temperature yesterday

Maximum temperature yesterday: 79 °F (at 3:00 PM)
Minimum temperature yesterday: 61 °F (at 1:00 AM)
Average temperature yesterday: 68 °F

Past Weeks' High & Low Weather Summary

 TemperatureHumidityPressure
High84 °F (Aug 17, 2:00 PM)100% (Aug 18, 3:00 AM)30.26 "Hg (Aug 18, 3:00 AM)
Low59 °F (Aug 28, 4:00 AM)42% (Aug 29, 4:00 PM)29.83 "Hg (Aug 27, 6:00 PM)
Average70 °F84%30.06 "Hg
* Reported Aug 15 4:00 PM — Aug 30 4:00 PM, Halifax, Weather by CustomWeather, © 2015

Note: Actual official high and low records may vary slightly from our data, if they occured in-between our weather recording intervals... More about our weather records

Advertising

Halifax weather history for previous 24 hours

 ConditionsComfort  
Time TempWeatherWind HumidityBarometerVisibility
4:00 PM
Sun, Aug 30
75 °FBroken clouds.14 mph57%29.98 "Hg15 mi
3:00 PM75 °FBroken clouds.10 mph65%29.99 "Hg15 mi
2:00 PM72 °FPartly sunny.13 mph73%30.01 "Hg15 mi
1:00 PM72 °FPartly sunny.13 mph69%30.02 "Hg15 mi
12:00 PM70 °FOvercast.13 mph73%30.04 "Hg15 mi
11:00 AM68 °FPartly sunny.13 mph78%30.04 "Hg15 mi
10:00 AM64 °FPartly sunny.12 mph88%30.02 "Hg15 mi
9:00 AM63 °FOvercast.9 mph88%30.03 "Hg15 mi
8:00 AM61 °FOvercast.7 mph94%30.03 "Hg15 mi
7:00 AM59 °FPassing clouds.10 mph94%30.04 "Hg15 mi
6:00 AM61 °FOvercast.10 mph94%30.04 "Hg15 mi
5:00 AM61 °FOvercast.8 mph94%30.03 "Hg15 mi
4:00 AM61 °FOvercast.8 mph94%30.04 "Hg15 mi
3:00 AM61 °FOvercast.8 mph94%30.04 "Hg15 mi
2:00 AM61 °FPassing clouds.9 mph88%30.06 "Hg15 mi
1:00 AM63 °FPassing clouds.8 mph83%30.07 "Hg15 mi
12:00 AM64 °FPassing clouds.9 mph78%30.08 "Hg15 mi
11:00 PM
Sat, Aug 29
64 °FPassing clouds.7 mph83%30.08 "Hg15 mi
10:00 PM66 °FPassing clouds.8 mph83%30.08 "Hg15 mi
9:00 PM68 °FPassing clouds.8 mph78%30.07 "Hg15 mi
8:00 PM68 °FPartly sunny.7 mph78%30.06 "Hg15 mi
7:00 PM72 °FPartly sunny.8 mph69%30.05 "Hg15 mi
6:00 PM75 °FPartly sunny.10 mph61%30.06 "Hg15 mi
5:00 PM77 °FPartly sunny.10 mph51%30.06 "Hg15 mi
Weather by CustomWeather, © 2015

See weather overviewHow to use our weather pages